Weather in Verkhnekolvinsk

Russia / Komi Republic     66°40′06″N   56°59′19″E
temp.,
°C
wind,
m/s
gust,
m/s
humid.,
%
clouds,
%
prec.,
mm/h
press.,
hPa
HPBL,
m
9 may, sun
sun900:00+2sw47885 0.0 1020108
03:00+2sw228150 0.0 102112
06:00+5se369181 0.0 1021133
09:00+10sse467140 0.0 1020415
12:00+12se5753100 0.0 10191019
15:00+13se5952100 0.0 1018418
18:00+12sse71359100 0.0 1016357
21:00+12sse91862100 0.0 1015488
10 may, mon
mon1000:00+12s91964100 0.0 1014401
03:00+11s9196873 0.0 1013419
06:00+14s112163100 0.0 1011794
09:00+10wnw71082100 0.1 1013461
12:00+5wnw71190100 2.4 1018723
15:00+6wnw7971100 4.4 10211137
18:00+6wnw2364100 0.0 102391
21:00+4s46705 0.0 102487
11 may, tue
tue1100:00+3sw477838 0.0 102587
03:00+3ssw4978100 0.0 1024148
06:00+5ssw61267100 0.0 1024378
09:00+9sw7115197 0.0 10231450
12:00+10sw81158100 0.0 10221549
15:00+7wsw6885100 0.3 1023922
18:00+7w5886100 0.1 1024530
21:00+6sw3689100 0.1 1024167
12 may, wed
wed1200:00+5wsw3593100 0.1 1024121
03:00+5sw349699 0.1 1024115
06:00+7ssw5888100 0.0 1022378
09:00+6ssw61296100 0.9 1019409
12:00+9wsw71596100 3.4 1018569
15:00+9wnw101695100 3.4 1019630
18:00+7wnw81287100 0.0 1021717
21:00+5nnw6989100 0.0 1025733
13 may, thu
thu1300:00+3nnw579055 0.0 1027421
03:00+1nnw468789 0.0 1030356
06:00+3nnw35735 0.0 1030483
09:00+6nw34526 0.0 1031914
12:00+9wnw344110 0.0 10301088
15:00+10w243797 0.0 10281162
18:00+9wsw2355100 0.1 1027500
21:00+7ese467098 0.3 1025255